Hinckley, MN

8:09 AM CDT on August 23, 2017 (GMT -0500)
Hinckley

Weather History for K04W - November, 2012

Change the Weather History Date:

Saturday, November 17, 2012

  Actual Average (KJMR) Record (KJMR)
Temperature  
Mean Temperature 42 °F -  
Max Temperature 53 °F 38 °F 71 °F (2001)
Min Temperature 30 °F 20 °F -5 °F (1959)
Degree Days  
Heating Degree Days 24    
Moisture  
Dew Point 32 °F    
Average Humidity 68    
Maximum Humidity 93    
Minimum Humidity 44    
Precipitation  
Precipitation 0.00 in - - ()
Sea Level Pressure  
Sea Level Pressure 30.23 in    
Wind  
Wind Speed 7 mph (SSE)    
Max Wind Speed 16 mph    
Max Gust Speed 22 mph    
Visibility 10 miles    
Events Rain    
Averages and records for this station are not official NWS values.
T = Trace of Precipitation, MM = Missing Value Source: NWS Daily Summary

Daily Weather History Graph

Daily Weather History Graph

Search for Another Location

Airport or City:

Trip Planner

Search our weather history database for the weather conditions in past years. The results will help you decide how hot, cold, wet, or windy it might be!

Date:

Astronomy

Nov. 17, 2012 Rise Set
Actual Time 7:15 AM CST 4:37 PM CST
Civil Twilight 6:42 AM CST 5:09 PM CST
Nautical Twilight 6:06 AM CST 5:46 PM CST
Astronomical Twilight 5:31 AM CST 6:21 PM CST
Moon 11:00 AM CST (11/17) 8:48 PM CST (11/17)
Length of Visible Light 10h 27m
Length of Day
9h 21m
Waxing Crescent, 20% of the Moon is Illuminated
Nov 17
Waxing Crescent
Nov 20
First Quarter
Nov 28
Full
Dec 6
Last Quarter
Dec 13
New

Hourly Weather History & Observations

Time (CST) Temp. Windchill Dew Point Humidity Pressure Visibility Wind Dir Wind Speed Gust Speed Precip Events Conditions
12:15 AM 30.2 °F 26.7 °F 23.0 °F 75% 30.31 in 10.0 mi ESE 3.5 mph - N/A   Clear
12:35 AM 30.2 °F 26.7 °F 23.0 °F 75% 30.31 in 10.0 mi ESE 3.5 mph - N/A   Clear
12:55 AM 30.2 °F 25.4 °F 24.8 °F 80% 30.30 in 10.0 mi ESE 4.6 mph - N/A   Clear
1:15 AM 30.2 °F 25.4 °F 24.8 °F 80% 30.29 in 10.0 mi SE 4.6 mph - N/A   Clear
1:35 AM 30.2 °F 26.7 °F 24.8 °F 80% 30.30 in 10.0 mi ESE 3.5 mph - N/A   Clear
1:55 AM 30.2 °F 25.4 °F 24.8 °F 80% 30.30 in 10.0 mi SE 4.6 mph - N/A   Clear
2:15 AM 30.2 °F 25.4 °F 26.6 °F 86% 30.30 in 10.0 mi SE 4.6 mph - N/A   Clear
2:35 AM 30.2 °F - 26.6 °F 86% 30.29 in 10.0 mi Calm Calm - N/A   Clear
2:55 AM 30.2 °F 26.7 °F 26.6 °F 86% 30.28 in 10.0 mi SE 3.5 mph - N/A   Clear
3:15 AM 30.2 °F 25.4 °F 26.6 °F 86% 30.28 in 10.0 mi SE 4.6 mph - N/A   Clear
3:35 AM 30.2 °F 25.4 °F 26.6 °F 86% 30.27 in 10.0 mi SE 4.6 mph - N/A   Clear
3:55 AM 32.0 °F 28.7 °F 28.4 °F 87% 30.27 in 10.0 mi SE 3.5 mph - N/A   Clear
4:15 AM 32.0 °F - 28.4 °F 87% 30.26 in 10.0 mi Calm Calm - N/A   Clear
4:35 AM 30.2 °F 26.7 °F 28.4 °F 93% 30.26 in 10.0 mi SE 3.5 mph - N/A   Clear
4:55 AM 32.0 °F 28.7 °F 28.4 °F 87% 30.26 in 10.0 mi SE 3.5 mph - N/A   Clear
5:15 AM 32.0 °F 28.7 °F 30.2 °F 93% 30.26 in 10.0 mi SE 3.5 mph - N/A   Clear
5:55 AM 33.8 °F 28.6 °F 30.2 °F 87% 30.25 in 10.0 mi SSE 5.8 mph - N/A   Clear
6:15 AM 33.8 °F 26.4 °F 30.2 °F 87% 30.25 in 10.0 mi SSE 9.2 mph - N/A   Clear
6:35 AM 33.8 °F 28.6 °F 30.2 °F 87% 30.25 in 10.0 mi SSE 5.8 mph - N/A   Clear
6:55 AM 33.8 °F 27.0 °F 30.2 °F 87% 30.25 in 10.0 mi SSE 8.1 mph - N/A   Clear
7:15 AM 33.8 °F 27.7 °F 30.2 °F 87% 30.25 in 10.0 mi SSE 6.9 mph - N/A   Clear
7:35 AM 33.8 °F 27.7 °F 32.0 °F 93% 30.25 in 10.0 mi SSE 6.9 mph - N/A   Clear
7:55 AM 35.6 °F 29.2 °F 32.0 °F 87% 30.25 in 10.0 mi SSE 8.1 mph - N/A   Clear
8:15 AM 35.6 °F 29.2 °F 32.0 °F 87% 30.25 in 10.0 mi South 8.1 mph - N/A   Clear
8:35 AM 37.4 °F 30.8 °F 32.0 °F 81% 30.25 in 10.0 mi South 9.2 mph - N/A   Clear
9:15 AM 39.2 °F 32.5 °F 32.0 °F 75% 30.25 in 10.0 mi South 10.4 mph 17.3 mph N/A   Clear
9:35 AM 41.0 °F 34.7 °F 32.0 °F 70% 30.25 in 10.0 mi South 10.4 mph - N/A   Clear
9:55 AM 42.8 °F 35.8 °F 32.0 °F 66% 30.25 in 10.0 mi South 13.8 mph 18.4 mph N/A   Clear
10:15 AM 42.8 °F 36.2 °F 32.0 °F 66% 30.26 in 10.0 mi South 12.7 mph 17.3 mph N/A   Clear
10:35 AM 44.6 °F 38.1 °F 33.8 °F 66% 30.26 in 10.0 mi South 13.8 mph 18.4 mph N/A   Clear
11:55 AM 50.0 °F - 33.8 °F 54% 30.23 in 10.0 mi South 11.5 mph 17.3 mph N/A   Clear
12:15 PM 50.0 °F - 32.0 °F 50% 30.23 in 10.0 mi South 10.4 mph - N/A   Clear
12:35 PM 51.8 °F - 32.0 °F 47% 30.22 in 10.0 mi South 11.5 mph - N/A   Clear
12:55 PM 51.8 °F - 32.0 °F 47% 30.22 in 10.0 mi South 12.7 mph - N/A   Clear
1:15 PM 53.6 °F - 32.0 °F 44% 30.21 in 10.0 mi South 12.7 mph 18.4 mph N/A   Clear
1:55 PM 53.6 °F - 32.0 °F 44% 30.20 in 10.0 mi South 12.7 mph 20.7 mph N/A   Clear
2:15 PM 53.6 °F - 32.0 °F 44% 30.20 in 10.0 mi South 16.1 mph 21.9 mph N/A   Clear
2:35 PM 53.6 °F - 32.0 °F 44% 30.20 in 10.0 mi South 11.5 mph 17.3 mph N/A   Clear
2:55 PM 53.6 °F - 32.0 °F 44% 30.20 in 10.0 mi South 15.0 mph - N/A   Clear
3:15 PM 53.6 °F - 32.0 °F 44% 30.20 in 10.0 mi South 11.5 mph 17.3 mph N/A   Clear
3:35 PM 53.6 °F - 33.8 °F 47% 30.20 in 10.0 mi South 12.7 mph 18.4 mph N/A   Clear
3:55 PM 51.8 °F - 33.8 °F 50% 30.20 in 10.0 mi South 10.4 mph 19.6 mph N/A   Clear
4:15 PM 50.0 °F - 33.8 °F 54% 30.19 in 10.0 mi SSE 9.2 mph - N/A   Clear
4:35 PM 50.0 °F - 33.8 °F 54% 30.20 in 10.0 mi SSE 8.1 mph - N/A   Clear
4:55 PM 50.0 °F - 33.8 °F 54% 30.20 in 10.0 mi South 10.4 mph - N/A   Scattered Clouds
5:15 PM 50.0 °F - 33.8 °F 54% 30.20 in 10.0 mi SSE 8.1 mph - N/A   Mostly Cloudy
5:35 PM 50.0 °F - 33.8 °F 54% 30.19 in 10.0 mi South 10.4 mph 16.1 mph N/A   Overcast
5:55 PM 50.0 °F - 33.8 °F 54% 30.19 in 10.0 mi SSE 6.9 mph - N/A   Mostly Cloudy
6:15 PM 50.0 °F - 33.8 °F 54% 30.19 in 10.0 mi SSE 8.1 mph - N/A   Mostly Cloudy
6:35 PM 50.0 °F - 33.8 °F 54% 30.19 in 10.0 mi SSE 8.1 mph - N/A   Overcast
6:55 PM 50.0 °F - 33.8 °F 54% 30.19 in 10.0 mi SSE 9.2 mph - N/A   Overcast
7:15 PM 50.0 °F - 33.8 °F 54% 30.18 in 10.0 mi SSE 9.2 mph - N/A   Overcast
7:35 PM 50.0 °F - 33.8 °F 54% 30.18 in 10.0 mi SSE 9.2 mph 18.4 mph N/A   Overcast
7:55 PM 50.0 °F - 33.8 °F 54% 30.19 in 10.0 mi SSE 12.7 mph - N/A   Overcast
8:15 PM 48.2 °F - 35.6 °F 62% 30.20 in 10.0 mi South 9.2 mph - N/A Rain Light Rain
8:35 PM 48.2 °F - 35.6 °F 62% 30.20 in 10.0 mi South 8.1 mph - N/A   Overcast
8:55 PM 46.4 °F 41.1 °F 35.6 °F 66% 30.21 in 10.0 mi South 11.5 mph 19.6 mph N/A Rain Light Rain
9:15 PM 46.4 °F 41.9 °F 35.6 °F 66% 30.21 in 10.0 mi South 9.2 mph - N/A   Overcast
9:35 PM 44.6 °F 40.2 °F 37.4 °F 76% 30.21 in 10.0 mi SSE 8.1 mph - N/A Rain Light Rain
9:55 PM 44.6 °F 40.2 °F 37.4 °F 76% 30.20 in 7.0 mi SE 8.1 mph - N/A Rain Light Rain
10:15 PM 44.6 °F 40.7 °F 37.4 °F 76% 30.20 in 10.0 mi SE 6.9 mph - N/A   Overcast
10:35 PM 46.4 °F 41.9 °F 35.6 °F 66% 30.19 in 10.0 mi SE 9.2 mph - N/A   Overcast
10:55 PM 46.4 °F 41.9 °F 35.6 °F 66% 30.19 in 10.0 mi SSE 9.2 mph - N/A   Overcast
11:15 PM 46.4 °F 41.1 °F 35.6 °F 66% 30.19 in 10.0 mi SSE 11.5 mph - N/A   Overcast
11:35 PM 46.4 °F 40.7 °F 33.8 °F 62% 30.19 in 10.0 mi SSE 12.7 mph - N/A   Overcast
11:55 PM 46.4 °F 41.1 °F 33.8 °F 62% 30.19 in 10.0 mi South 11.5 mph 18.4 mph N/A   Overcast